Weather History for St. Johnsbury, VT

Change the Weather History Date:

Wednesday, May 28, 2014

  Actual Average Record
Temperature  
Mean Temperature 51 °F 60 °F  
Max Temperature 58 °F 72 °F 93 °F (1978)
Min Temperature 44 °F 48 °F 30 °F (1994)
Degree Days  
Heating Degree Days 14    
Cooling Degree Days 0 1  
Month to date cooling degree days 4 11  
Year to date cooling degree days 4 12  
Growing Degree Days 2 (Base 50)    
Moisture  
Dew Point 46 °F    
Average Humidity 79    
Maximum Humidity 100    
Minimum Humidity 57    
Precipitation  
Precipitation 0.02 in 0.12 in 1.50 in (1951)
Month to date precipitation 4.29 3.01  
Year to date precipitation 15.37 13.06  
Sea Level Pressure  
Sea Level Pressure 30.06 in    
Wind  
Wind Speed - (North)    
Max Wind Speed -    
Max Gust Speed -    
T = Trace of Precipitation, MM = Missing Value Source: NWS Daily Summary

Daily Weather History Graph

Daily Weather History Graph

Search for Another Location

Airport:

Trip Planner

Search our weather history database for the weather conditions in past years. The results will help you decide how hot, cold, wet, or windy it might be!

Date:

Astronomy

May. 28, 2014 Rise Set
Actual Time 5:09 AM EDT 8:22 PM EDT
Civil Twilight 4:33 AM EDT 8:57 PM EDT
Nautical Twilight 3:48 AM EDT 9:43 PM EDT
Astronomical Twilight 2:52 AM EDT 10:39 PM EDT
Moon 5:16 AM EDT (5/28) 8:15 PM EDT (5/28)
Length of Visible Light 16h 23m
Length of Day
15h 12m
Waning Crescent, 0% of the Moon is Illuminated
May 28
Waning Crescent
May 28
New
Jun 5
First Quarter
Jun 13
Full
Jun 19
Last Quarter

Hourly Weather History & Observations

Time (EDT) Temp. Dew Point Humidity Pressure Visibility Wind Dir Wind Speed Gust Speed Precip Events Conditions
12:54 AM 48.9 °F 48.0 °F 97% 29.91 in - North - - 0.15 in   Unknown
1:54 AM 48.9 °F 48.0 °F 97% 29.91 in - North - - 0.01 in   Unknown
2:54 AM 48.9 °F 46.9 °F 93% 29.92 in - North - - N/A   Unknown
3:54 AM 48.0 °F 46.9 °F 96% 29.92 in - North - - N/A   Unknown
4:54 AM 48.0 °F 46.0 °F 93% 29.93 in - North - - N/A   Unknown
5:54 AM 46.9 °F 46.0 °F 97% 29.95 in - North - - N/A   Unknown
6:54 AM 48.0 °F 46.0 °F 93% 29.97 in - North - - N/A   Unknown
7:54 AM 48.9 °F 46.9 °F 93% 29.99 in - North - - N/A   Unknown
8:54 AM 48.9 °F 46.0 °F 90% 30.02 in - North - - N/A   Unknown
9:54 AM 50.0 °F 45.0 °F 83% 30.04 in - North - - N/A   Unknown
10:54 AM 50.0 °F 45.0 °F 83% 30.06 in - North - - N/A   Unknown
11:54 AM 50.0 °F 46.9 °F 89% 30.09 in - North - - N/A   Unknown
12:54 PM 53.1 °F 46.9 °F 80% 30.09 in - North - - 0.01 in   Unknown
1:54 PM 54.0 °F 46.0 °F 75% 30.11 in - North - - N/A   Unknown
2:54 PM 54.0 °F 45.0 °F 72% 30.12 in - North - - N/A   Unknown
3:54 PM 57.0 °F 44.1 °F 62% 30.12 in - North - - N/A   Unknown
4:54 PM 57.0 °F 43.0 °F 59% 30.12 in - North - - N/A   Unknown
5:54 PM 57.0 °F 44.1 °F 62% 30.14 in - North - - N/A   Unknown
6:54 PM 55.9 °F 46.0 °F 69% 30.14 in - North - - N/A   Unknown
7:54 PM 53.1 °F 48.9 °F 86% 30.15 in - North - - N/A   Unknown
8:54 PM 48.9 °F 46.9 °F 93% 30.17 in - North - - N/A   Unknown
9:54 PM 46.9 °F 44.1 °F 90% 30.19 in - North - - N/A   Unknown
10:54 PM 46.0 °F 45.0 °F 96% 30.21 in - North - - N/A   Unknown
11:54 PM 45.0 °F 44.1 °F 97% 30.21 in - North - - N/A   Unknown